Miscellaneous Local Product
Issued by NWS Hastings, NE

Home | Current Version | Previous Version | Text Only | Print | Product List | Glossary Off
Versions: 1 2 3 4 5 6 7 8 9 10 11 12 13 14 15 16 17 18 19 20 21 22 23 24 25 26 27 28 29 30 31 32 33 34 35 36 37 38 39 40 41 42 43 44 45 46 47 48 49 50

000
AXUS43 KGID 231302
MISGRI

GID CWA HOURLY WEATHER ROUNDUP
NATIONAL WEATHER SERVICE HASTINGS NE
800 AM CDT WED JUL 23 2014

NOTE: "FAIR" INDICATES FEW OR NO CLOUDS BELOW 12,000 FEET WITH NO
SIGNIFICANT WEATHER AND/OR OBSTRUCTIONS TO VISIBILITY.

...SOUTH CENTRAL NEBRASKA...

CITY           SKY/WX    TMP DP  RH WIND       PRES   REMARKS
GRAND ISLAND   SUNNY     67  61  81 E6        30.30R
HASTINGS       MOSUNNY   69  60  73 E8        30.27S
KEARNEY        MOSUNNY   70  63  78 E8        30.27F
ORD            MOSUNNY   65  61  87 N3        30.31S
YORK           SUNNY     64  63  94 N3        30.29R
AURORA         SUNNY     66  64  91 NE3       30.28S
LEXINGTON      MOSUNNY   67  65  93 E5        30.29R
HOLDREGE       MOSUNNY   68  63  84 E7        30.27S
HEBRON         PTSUNNY   73  64  71 E6        30.26F

...NEBRASKA PANHANDLE...

CITY           SKY/WX    TMP DP  RH WIND       PRES   REMARKS
CHADRON        SUNNY     70  56  61 S9        30.27R
ALLIANCE       SUNNY     65  59  81 SE10      30.33F
SCOTTSBLUFF    PTSUNNY   69  59  70 SE14      30.33F
SIDNEY         CLOUDY    66  62  87 NE15G23   30.39R

...WESTERN AND NORTH CENTRAL NEBRASKA...

CITY           SKY/WX    TMP DP  RH WIND       PRES   REMARKS
VALENTINE      PTSUNNY   69  63  81 SE9       30.23R
AINSWORTH      CLOUDY    66  61  85 SE9       30.28S
ONEILL         MOSUNNY   66  57  73 E3        30.31F
BROKEN BOW     PTSUNNY   68  63  84 NE7       30.34R
IMPERIAL       CLOUDY    68  65  90 E9        30.31R
NORTH PLATTE   PTSUNNY   66  62  87 NE14      30.32R
MCCOOK         MOSUNNY   69  64  84 E7        30.27S

...EASTERN NEBRASKA...

CITY           SKY/WX    TMP DP  RH WIND       PRES   REMARKS
NORFOLK        PTSUNNY   66  58  75 NW3       30.30R
SO SIOUX CITY  MOSUNNY   68  58  70 NE7       30.27R
TEKAMAH        SUNNY     67  59  75 N9        30.25R
COLUMBUS       SUNNY     64  57  77 N6        30.30R
ALBION         SUNNY     64  57  78 NE6       30.30S
OMAHA EPPLEY   MOSUNNY   67  59  75 N7        30.23S
OFFUTT AFB     MOSUNNY   68  61  76 NE7       30.21F
MILLARD        SUNNY     68  58  70 NE5       30.22F
LINCOLN        SUNNY     70  60  70 N6        30.25R
NEBRASKA CITY  SUNNY     67  59  76 N5        30.22R
BEATRICE       SUNNY     65  60  84 N9        30.23R
FALLS CITY     SUNNY     71  64  78 N5        30.19S

...NORTHERN KANSAS...

CITY           SKY/WX    TMP DP  RH WIND       PRES   REMARKS
GOODLAND       CLOUDY    68  67  96 SE14      30.28F FOG
HILL CITY      CLOUDY    72  67  84 NE8       30.23S
NORTON         SUNNY     70  61  73 NE7       30.24F
PHILLIPSBURG   LGT RAIN  70  66  88 NE9       30.22F
SMITH CENTER   SUNNY     66  63  88 NE13      30.22S
HAYS           CLOUDY    72  63  73 SE15      30.17F
RUSSELL        CLOUDY    72  66  81 E15       30.18F
CONCORDIA      TSTM      67  65  93 SE13      30.21F
SALINA         CLOUDY    76  67  73 N20G29    30.22R
TOPEKA         SUNNY     75  68  78 N9        30.17R



USA.gov is the U.S. government's official web portal to all federal, state and local government web resources and services.